CAPE
0 0 0 0 0 0 0 0 0 0 0 0 0 0 0 0 0 0 0 0 0 0 0 0 0 0 0 0 0 0 0 0 0 0 0 0 0 0 0 0 0 0 0 0
0 0 0 0 0 0 0 0 0 0 0 0 0 0 0 0 0 0 0 0 0 0 0 0 0 0 0 0 0 0 0 0 0 0 0 0 0 0 0 0 0 0 0 0
0 0 0 0 0 0 0 0 0 0 0 0 0 0 0 0 0 0 0 0 0 0 0 0 0 0 0 0 0 0 0 0 0 0 0 0 0 0 0 0 0 0 0 0
0 0 0 0 0 0 0 0 0 0 0 0 0 0 0 0 0 0 0 0 0 0 0 0 0 0 0 0 0 0 0 0 0 0 0 0 0 0 0 0 0 0 0 0
0 0 0 0 0 0 0 0 0 0 0 0 0 0 0 0 0 0 0 0 0 0 0 0 0 0 0 0 0 0 0 0 0 0 0 0 0 0 0 0 0 0 0 0
0 0 0 0 0 0 0 0 0 0 0 0 0 0 0 0 0 0 0 0 0 0 0 0 0 0 0 0 0 0 0 0 0 0 0 0 0 0 0 0 0 0 0 0
0 0 0 0 0 0 0 0 0 0 0 0 0 0 0 0 0 0 0 0 0 0 0 0 0 0 0 0 0 0 0 0 0 0 0 0 0 0 0 0 0 0 0 0
0 0 0 0 0 0 0 0 0 0 0 0 0 0 0 0 0 0 0 0 0 0 0 0 0 0 0 0 0 0 0 0 0 0 0 0 0 0 0 0 0 0 0 0
0 0 0 0 0 0 0 0 0 0 0 0 0 0 0 0 0 0 0 0 0 0 0 0 0 0 0 0 0 0 0 0 0 0 0 0 0 0 1 0 0 0 0 1
0 0 0 0 0 0 0 0 0 0 0 0 0 0 0 0 0 0 0 0 0 0 0 0 0 0 0 0 0 0 0 0 0 0 0 0 0 0 1 1 1 0 1 1
0 0 0 0 0 0 0 0 0 0 0 0 0 0 0 0 0 0 0 0 0 0 0 0 0 0 0 0 0 0 0 0 1 0 1 1 1 1 1 2 1 1 1 1
0 0 0 0 0 0 0 0 0 0 0 0 0 0 0 0 0 0 0 0 0 0 0 0 0 0 0 0 0 0 0 0 1 1 1 1 1 1 1 1 1 1 0 1
0 0 0 0 0 0 0 0 0 0 0 0 0 0 0 0 0 0 0 0 0 0 0 0 0 0 0 0 0 0 0 0 2 2 1 1 1 1 1 1 0 0 0 0
0 0 0 0 0 0 0 0 0 0 0 0 0 0 0 0 0 0 0 0 0 0 0 0 0 0 0 0 0 0 0 0 1 1 2 1 1 0 0 0 0 0 0 0
0 0 0 0 0 0 0 0 0 0 0 0 0 0 0 0 0 0 0 0 0 0 0 0 0 0 0 0 0 0 0 0 0 1 1 0 1 0 0 0 0 0 0 0
0 0 0 0 0 0 0 0 0 0 0 0 0 0 0 0 0 0 0 0 0 0 0 0 0 0 0 0 0 0 0 0 0 0 0 0 0 0 0 0 1 0 0 1
0 0 0 0 0 0 0 0 0 0 0 0 0 0 0 0 0 0 0 0 0 0 0 0 0 0 0 0 0 0 0 0 0 0 0 0 0 0 0 0 1 1 1 1
0 0 0 0 0 0 0 0 0 0 0 0 0 0 0 0 0 0 0 0 0 0 0 0 0 0 0 0 0 0 0 0 0 0 0 0 0 0 0 0 0 0 1 1
0 0 0 0 0 0 0 0 0 0 0 0 0 0 0 0 0 0 0 0 0 0 0 0 0 0 0 0 0 0 0 0 0 0 0 0 0 0 0 0 0 0 1 0
0 0 0 0 0 0 0 0 0 0 0 0 0 0 0 0 0 0 0 0 0 0 0 0 0 0 0 0 0 0 0 0 0 0 0 0 0 0 0 0 0 0 0 1
2 0 0 0 0 0 0 0 0 0 0 0 0 0 0 0 0 0 0 0 0 0 0 0 0 0 0 0 0 0 0 0 0 0 0 0 1 1 0 0 0 1 1 1
0 0 0 0 0 0 0 0 0 0 0 0 0 0 0 0 0 0 0 0 0 0 0 0 0 0 0 0 0 0 0 0 0 0 0 0 0 0 0 0 0 0 0 0
0 0 0 0 0 0 0 0 0 0 0 0 0 0 0 0 0 0 0 0 0 0 0 0 0 0 0 0 0 0 0 0 0 0 0 0 0 0 0 0 0 0 0 0
0 0 0 0 0 0 0 0 0 0 0 0 0 0 0 0 0 0 0 0 0 0 0 0 0 0 0 0 0 0 0 0 0 0 0 0 0 0 0 0 0 0 0 0
0 0 0 0 0 0 0 0 0 0 0 0 0 0 0 0 0 0 0 0 0 0 0 0 0 0 0 0 0 0 0 0 0 0 0 0 0 0 0 0 0 0 0 0
0 0 0 0 0 0 0 0 0 0 0 0 0 0 0 0 0 0 0 0 0 0 0 0 0 0 0 0 0 0 0 0 0 0 0 0 0 0 0 0 0 0 0 0
CIN
-0 -0 -0 -0 -0 -0 -0 -0 -0 -0 -0 -0 -0 -0 -0 -0 -0 -0 -0 -0 -0 -0 -0 -0 -0 -0 -0 -0 -0 -0 -0 -0 -0 -0 -0 -0 -0 -0 -0 -0 -0 -0 -0 -0
-0 -0 -0 -0 -0 -0 -0 -0 -0 -0 -0 -0 -0 -0 -0 -0 -0 -0 -0 -0 -0 -0 -0 -0 -0 -0 -0 -0 -0 -0 -0 -0 -0 -0 -0 -0 -0 -0 -0 -0 -0 -0 -0 -0
-0 -0 -0 -0 -0 -0 -0 -0 -0 -0 -0 -0 -0 -0 -0 -0 -0 -0 -0 -0 -0 -0 -0 -0 -0 -0 -0 -0 -0 -0 -0 -0 -0 -0 -0 -0 -0 -0 -0 -0 -0 -0 -0 -0
-0 -0 -0 -0 -0 -0 -0 -0 -0 -0 -0 -0 -0 -0 -0 -0 -0 -0 -0 -0 -0 -0 -0 -0 -0 -0 -0 -0 -0 -0 -0 -0 -0 -0 -0 -0 -0 -0 -0 -0 -0 -0 -0 -0
-0 -0 -0 -0 -0 -0 -0 -0 -0 -0 -0 -0 -0 -0 -0 -0 -0 -0 -0 -0 -0 -0 -0 -0 -0 -0 -0 -0 -0 -0 -0 -0 -0 -0 -0 -0 -0 -0 -0 -0 -0 -0 -0 -0
-0 -0 -0 -0 -0 -0 -0 -0 -0 -0 -0 -0 -0 -0 -0 -0 -0 -0 -0 -0 -0 -0 -0 -0 -0 -0 -0 -0 -0 -0 -0 -0 -0 -0 -0 -0 -0 -0 -0 -0 -0 -0 -0 -0
-0 -0 -0 -0 -0 -0 -0 -0 -0 -0 -0 -0 -0 -0 -0 -0 -0 -0 -0 -0 -0 -0 -0 -0 -0 -0 -0 -0 -0 -0 -0 -0 -0 -0 -0 -0 -0 -0 -0 -0 -0 -0 -0 -0
-0 -0 -0 -0 -0 -0 -0 -0 -0 -0 -0 -0 -0 -0 -0 -0 -0 -0 -0 -0 -0 -0 -0 -0 -0 -0 -0 -0 -0 -0 -0 -0 -0 -0 -0 -0 -0 -0 -0 -0 -0 -0 -0 -0
-0 -0 -0 -0 -0 -0 -0 -0 -0 -0 -0 -0 -0 -0 -0 -0 -0 -0 -0 -0 -0 -0 -0 -0 -0 -0 -0 -0 -0 -0 -0 -0 -0 -0 -0 -0 -0 -0 -0 -0 -0 -0 -0 -0
-0 -0 -0 -0 -0 -0 -0 -0 -0 -0 -0 -0 -0 -0 -0 -0 -0 -0 -0 -0 -0 -0 -0 -0 -0 -0 -0 -0 -0 -0 -0 -0 -0 -0 -0 -0 -0 -0 -0 -0 -0 -0 -0 -0
-0 -0 -0 -0 -0 -0 -0 -0 -0 -0 -0 -0 -0 -0 -0 -0 -0 -0 -0 -0 -0 -0 -0 -0 -0 -0 -0 -0 -0 -0 -0 -0 -0 -0 -0 -0 -0 -0 -0 -0 -0 -0 -0 -0
-0 -0 -0 -0 -0 -0 -0 -0 -0 -0 -0 -0 -0 -0 -0 -0 -0 -0 -0 -0 -0 -0 -0 -0 -0 -0 -0 -0 -0 -0 -0 -0 -0 -0 -0 -0 -0 -0 -0 -0 -0 -0 -0 -0
-0 -0 -0 -0 -0 -0 -0 -0 -0 -0 -0 -0 -0 -0 -0 -0 -0 -0 -0 -0 -0 -0 -0 -0 -0 -0 -0 -0 -0 -0 -0 -0 -0 -0 -0 -0 -0 -0 -0 -0 -0 -0 -0 -0
-0 -0 -0 -0 -0 -0 -0 -0 -0 -0 -0 -0 -0 -0 -0 -0 -0 -0 -0 -0 -0 -0 -0 -0 -0 -0 -0 -0 -0 -0 -0 -0 -0 -0 -0 -0 -0 -0 -0 -0 -0 -0 -0 -0
-0 -0 -0 -0 -0 -0 -0 -0 -0 -0 -0 -0 -0 -0 -0 -0 -0 -0 -0 -0 -0 -0 -0 -0 -0 -0 -0 -0 -0 -0 -0 -0 -0 -0 -0 -0 -0 -0 -0 -0 -0 -0 -0 -0
-0 -0 -0 -0 -0 -0 -0 -0 -0 -0 -0 -0 -0 -0 -0 -0 -0 -0 -0 -0 -0 -0 -0 -0 -0 -0 -0 -0 -0 -0 -0 -0 -0 -0 -0 -0 -0 -0 -0 -0 -0 -0 -0 -0
-0 -0 -0 -0 -0 -0 -0 -0 -0 -0 -0 -0 -0 -0 -0 -0 -0 -0 -0 -0 -0 -0 -0 -0 -0 -0 -0 -0 -0 -0 -0 -0 -0 -0 -0 -0 -0 -0 -0 -0 -0 -0 -0 -0
-0 -0 -0 -0 -0 -0 -0 -0 -0 -0 -0 -0 -0 -0 -0 -0 -0 -0 -0 -0 -0 -0 -0 -0 -0 -0 -0 -0 -0 -0 -0 -0 -0 -0 -0 -0 -0 -0 -0 -0 -0 -0 -0 -0
-0 -0 -0 -0 -0 -0 -0 -0 -0 -0 -0 -0 -0 -0 -0 -0 -0 -0 -0 -0 -0 -0 -0 -0 -0 -0 -0 -0 -0 -0 -0 -0 -0 -0 -0 -0 -0 -0 -0 -0 -0 -0 -0 -0
-0 -0 -0 -0 -0 -0 -0 -0 -0 -0 -0 -0 -0 -0 -0 -0 -0 -0 -0 -0 -0 -0 -0 -0 -0 -0 -0 -0 -0 -0 -0 -0 -0 -0 -0 -0 -0 -0 -0 -0 -0 -0 -0 -0
-0 -0 -0 -0 -0 -0 -0 -0 -0 -0 -0 -0 -0 -0 -0 -0 -0 -0 -0 -0 -0 -0 -0 -0 -0 -0 -0 -0 -0 -0 -0 -0 -0 -0 -0 -0 -0 -0 -0 -0 -0 -0 -0 -0
-0 -0 -0 -0 -0 -0 -0 -0 -0 -0 -0 -0 -0 -0 -0 -0 -0 -0 -0 -0 -0 -0 -0 -0 -0 -0 -0 -0 -0 -0 -0 -0 -0 -0 -0 -0 -0 -0 -0 -0 -0 -0 -0 -0
-0 -0 -0 -0 -0 -0 -0 -0 -0 -0 -0 -0 -0 -0 -0 -0 -0 -0 -0 -0 -0 -0 -0 -0 -0 -0 -0 -0 -0 -0 -0 -0 -0 -0 -0 -0 -0 -0 -0 -0 -0 -0 -0 -0
-0 -0 -0 -0 -0 -0 -0 -0 -0 -0 -0 -0 -0 -0 -0 -0 -0 -0 -0 -0 -0 -0 -0 -0 -0 -0 -0 -0 -0 -0 -0 -0 -0 -0 -0 -0 -0 -0 -0 -0 -0 -0 -0 -0
-0 -0 -0 -0 -0 -0 -0 -0 -0 -0 -0 -0 -0 -0 -0 -0 -0 -0 -0 -0 -0 -0 -0 -0 -0 -0 -0 -0 -0 -0 -0 -0 -0 -0 -0 -0 -0 -0 -0 -0 -0 -0 -0 -0
-0 -0 -0 -0 -0 -0 -0 -0 -0 -0 -0 -0 -0 -0 -0 -0 -0 -0 -0 -0 -0 -0 -0 -0 -0 -0 -0 -0 -0 -0 -0 -0 -0 -0 -0 -0 -0 -0 -0 -0 -0 -0 -0 -0
Wind_Speed
17 17 19 16 15 15 17 21 26 25 24 27 25 31 31 29 23 20 19 20 19 19 20 22 25 28 32 34 39 42 46 47 45 49 51 52 53 53 53 51 51 52 53 51
18 19 15 13 15 17 20 24 26 25 23 27 31 41 31 21 17 16 15 17 17 20 24 23 31 35 38 42 44 45 48 48 47 50 51 50 52 52 53 53 52 52 52 52
18 16 12 16 17 20 22 23 23 26 31 25 32 27 23 20 17 17 14 15 18 22 25 32 38 40 42 45 45 48 49 46 41 44 44 45 47 49 50 49 49 48 48 49
18 14 14 17 20 20 25 18 22 29 28 27 27 28 26 20 18 14 14 15 16 22 29 33 39 41 42 40 37 40 44 42 36 38 43 45 46 48 45 48 51 52 50 50
17 14 15 18 21 18 21 20 25 24 24 27 23 24 23 22 16 10 11 11 14 25 31 36 39 38 37 36 38 40 39 38 34 35 39 43 44 44 44 46 49 50 51 51
16 16 16 17 17 18 17 21 23 23 23 24 20 23 24 18 18 16 13 10 17 30 34 35 37 37 38 38 41 40 37 36 34 36 39 40 41 43 44 45 48 49 49 50
18 18 17 16 17 18 19 22 27 26 23 24 20 23 15 18 17 18 15 12 22 29 34 40 44 45 43 44 44 41 37 36 36 37 38 37 36 36 40 44 46 47 49 49
17 21 16 15 17 19 18 19 21 27 25 27 24 19 20 19 21 15 14 16 24 31 36 39 43 44 42 44 43 41 38 36 36 37 36 33 34 35 37 39 41 43 47 48
17 20 17 16 16 17 18 20 17 22 24 27 20 21 25 18 17 13 12 18 28 33 37 40 41 40 44 46 44 42 39 36 36 36 34 32 30 32 29 27 29 33 38 44
18 21 18 16 17 19 18 12 21 21 26 28 21 25 18 24 21 16 11 15 25 38 37 38 40 41 43 43 41 40 36 36 34 35 33 28 28 27 28 28 32 30 29 31
17 20 19 17 17 15 16 19 19 19 19 23 28 24 16 18 19 17 13 14 26 33 31 35 37 38 40 40 41 40 37 36 34 35 32 31 29 29 28 30 33 27 24 22
17 18 22 21 18 17 17 18 14 20 21 20 23 26 17 16 17 16 14 14 25 27 28 31 33 35 39 41 40 39 36 35 34 36 30 29 28 28 28 28 27 23 14 12
16 22 24 25 22 20 19 17 16 18 20 20 22 23 21 20 20 16 16 19 23 24 26 28 31 34 39 41 41 40 36 35 33 38 32 31 30 29 26 21 14 8 7 9
17 23 25 26 21 16 18 14 11 17 22 23 15 17 18 14 16 16 16 16 19 21 24 27 31 34 36 39 40 40 37 37 33 36 30 29 30 25 18 16 9 7 1 10
23 30 26 28 25 25 25 21 13 15 17 20 20 19 17 14 14 14 15 17 19 20 23 27 30 32 34 37 39 38 36 38 34 33 30 26 19 19 18 14 9 4 2 6
23 28 25 30 26 26 31 21 17 16 17 17 17 23 22 13 14 14 17 17 17 19 21 24 26 28 30 35 38 37 36 38 36 35 35 24 20 19 18 10 8 2 13 13
22 23 26 31 26 30 35 21 16 18 16 13 14 11 19 24 21 19 19 16 14 16 18 22 23 26 28 32 34 35 34 33 37 32 37 27 17 15 17 16 7 18 20 18
23 22 25 30 27 33 26 19 16 16 15 9 11 10 12 16 22 19 15 12 12 14 16 18 20 23 26 28 31 32 33 34 36 37 40 35 28 28 21 26 32 29 25 19
20 20 24 28 28 35 37 23 20 20 28 6 9 7 11 22 24 22 18 11 10 12 15 16 18 21 24 28 29 30 33 35 36 39 39 35 38 38 37 27 14 24 7 12
20 20 23 23 28 31 22 19 14 15 32 15 4 11 16 21 28 26 20 16 11 11 14 14 17 20 23 25 28 28 30 33 36 36 37 35 37 33 36 34 27 11 12 12
22 24 27 26 30 34 25 21 14 25 26 13 13 15 17 21 21 22 19 16 12 11 12 13 14 17 20 21 24 25 26 30 28 29 32 35 34 37 40 40 38 16 31 16
23 21 24 23 28 39 15 14 19 19 16 17 20 19 20 19 21 17 15 12 11 10 11 11 11 13 16 17 19 21 23 21 22 26 30 32 33 33 36 37 38 31 30 31
28 23 25 19 21 20 13 16 14 19 19 22 26 24 23 22 17 15 11 7 7 7 7 8 8 10 11 12 14 16 17 18 19 24 27 29 30 31 32 33 31 30 25 33
31 25 27 25 25 25 26 23 26 24 19 23 27 29 27 11 11 11 8 6 4 5 4 4 5 5 6 8 10 10 12 14 15 20 22 24 27 28 30 28 27 32 23 19
30 21 27 32 32 33 33 26 27 26 24 23 16 24 21 11 10 8 7 4 3 2 1 4 6 6 6 6 7 8 9 11 12 15 16 16 15 16 19 21 22 26 25 23
27 26 27 29 22 28 31 28 25 25 32 35 37 39 29 15 11 10 7 5 3 2 3 5 9 8 9 9 10 11 12 12 12 13 13 13 13 13 14 16 18 18 20 21
Wind_Direction
305 302 301 310 318 321 319 313 302 307 320 317 320 316 259 319 325 330 337 341 343 342 342 342 342 332 330 330 327 325 322 320 317 312 307 303 299 297 294 292 289 287 283 279
302 298 309 319 319 317 313 304 303 311 323 322 318 288 321 328 331 335 339 347 347 344 338 342 327 326 328 327 327 325 322 320 318 313 308 305 301 298 296 293 290 287 283 280
297 307 311 308 309 305 305 305 310 313 313 326 319 325 336 343 343 342 346 350 349 345 339 321 316 326 328 329 330 328 325 325 326 321 316 311 306 301 298 295 291 289 286 282
300 306 306 302 300 304 298 315 317 313 318 322 331 326 335 339 339 343 345 346 352 346 330 329 329 330 334 337 338 336 332 330 331 327 319 314 310 307 305 300 294 289 286 282
297 301 299 297 298 305 306 315 316 321 323 323 330 332 342 344 344 337 341 347 351 336 334 332 333 338 341 342 341 340 336 333 332 330 323 317 313 310 308 304 299 293 287 282
298 303 304 303 308 308 316 315 319 323 325 323 336 339 342 352 353 352 346 346 344 334 334 336 338 341 343 344 343 343 340 336 334 331 326 321 316 313 309 306 301 297 292 284
294 293 301 305 303 309 312 314 310 312 320 323 340 337 340 351 351 355 356 356 342 340 337 334 333 337 342 344 343 345 344 340 337 333 329 326 322 317 312 307 303 298 291 286
286 290 290 300 297 303 308 313 312 308 316 320 334 339 350 356 356 356 354 351 344 341 339 339 337 340 345 345 345 346 344 342 340 337 333 331 327 323 317 312 305 300 293 286
288 289 296 298 300 305 309 308 323 318 321 322 337 341 340 355 355 357 360 351 342 343 342 339 341 347 346 345 346 346 346 345 344 342 339 336 333 329 323 315 310 305 300 290
287 288 292 294 301 308 306 326 313 318 317 321 334 336 347 350 356 359 350 353 350 343 343 344 346 347 348 349 350 350 350 348 348 346 345 342 337 334 328 322 318 308 304 296
283 283 292 295 293 296 305 307 315 320 326 325 328 340 354 353 357 358 351 352 351 348 349 349 349 351 352 353 354 353 354 353 353 350 349 347 343 341 338 333 329 318 310 301
276 287 283 288 300 305 306 309 313 311 319 325 328 332 357 358 358 358 355 343 345 350 351 352 353 355 355 356 358 358 358 358 358 354 355 353 351 349 346 344 342 336 308 286
273 277 279 286 295 300 300 303 308 313 320 316 322 330 346 354 354 352 344 339 343 350 353 355 357 358 357 358 360 0 2 1 2 356 1 359 358 357 356 357 348 314 276 230
277 274 276 281 295 311 304 309 304 304 310 313 302 289 287 310 326 331 335 336 346 351 354 357 358 359 360 1 3 4 5 5 7 4 8 8 8 9 10 12 359 6 6 212
274 271 279 282 292 296 299 303 294 285 296 304 307 312 274 306 309 321 337 346 349 351 357 359 1 2 3 4 5 9 9 7 13 13 16 16 19 27 30 36 36 33 103 166
272 274 283 282 292 297 295 300 292 280 293 275 286 261 261 284 338 341 346 348 349 352 358 2 5 6 8 7 6 11 13 9 12 16 18 25 31 37 40 46 53 32 310 311
271 274 281 282 296 298 294 300 283 295 300 299 304 307 337 338 348 350 349 350 348 354 360 3 8 9 10 10 10 13 17 20 14 25 20 35 38 43 50 57 50 331 339 338
270 275 282 285 294 290 306 319 317 308 306 263 301 302 327 336 342 346 347 348 352 358 2 6 10 11 11 13 15 17 20 24 24 21 16 33 42 49 58 55 47 359 354 348
276 275 282 283 285 290 293 308 311 307 308 271 268 295 329 338 343 352 2 2 0 6 6 10 13 13 12 12 15 21 22 24 29 25 20 24 35 40 50 67 75 74 37 12
273 277 276 286 288 290 315 325 334 333 304 336 354 337 339 344 340 350 4 11 15 15 11 13 14 14 12 14 15 24 27 25 29 34 27 9 40 59 59 65 78 68 89 28
265 270 269 281 287 290 308 303 321 306 310 346 353 342 341 339 342 352 1 9 17 15 12 15 18 18 16 18 19 24 31 28 41 45 41 26 18 30 44 39 64 84 30 31
264 270 277 281 287 290 317 312 299 315 324 336 338 338 334 337 342 348 352 3 10 11 12 18 23 24 24 25 30 30 36 48 55 50 42 24 30 26 35 37 40 28 30 36
266 273 278 274 293 308 308 311 326 315 316 326 329 331 331 334 336 340 338 345 358 6 12 24 31 32 40 45 45 41 49 57 65 52 49 39 31 30 34 35 30 31 25 42
264 266 276 283 292 293 292 293 300 306 309 314 318 320 323 312 323 333 336 334 336 358 10 52 66 73 87 80 66 70 71 68 80 60 62 60 52 58 61 77 87 57 22 18
263 260 269 277 283 293 296 301 303 308 308 313 312 320 321 314 307 315 317 306 299 328 53 138 148 144 140 107 106 108 106 96 99 88 88 99 115 112 103 97 96 89 97 104
258 264 265 276 294 299 302 310 314 311 308 307 305 301 312 314 292 315 289 264 262 269 164 162 171 166 163 154 158 153 150 139 134 136 132 134 145 142 134 125 119 117 112 111